WJA4522 KBOS-CYQX

Flight info

Callsign WJA4522
Flight time 1h 57m
Altitude 35000
Route LBSTA8 LBSTA DCT ENE Q822 ALLEX DCT BRIDG DCT VINSI
Aircraft B738/M-SDE2E3FGHIRWXY/LB1

Departure

Time 2026-05-04 14:35
Airport Boston Logan International Airport (KBOS)

Arrival

Time 2026-05-04 16:32
Airport Gander International Airport (CYQX)
Time Latitude Longitude Altitude Speed Heading
2026-05-04 14:15 42.36187 -71.02446 25 ft 0 kts 281°
2026-05-04 14:24 42.36187 -71.02445 25 ft 2 kts 281°
2026-05-04 14:24 42.36184 -71.02423 24 ft 2 kts 281°
2026-05-04 14:25 42.36181 -71.02401 27 ft 2 kts 280°
2026-05-04 14:25 42.36177 -71.02374 28 ft 0 kts 280°
2026-05-04 14:26 42.36173 -71.02382 27 ft 3 kts 233°
2026-05-04 14:27 42.36154 -71.02388 26 ft 2 kts 165°
2026-05-04 14:27 42.36088 -71.02328 24 ft 17 kts 146°
2026-05-04 14:27 42.36009 -71.02205 27 ft 17 kts 121°
2026-05-04 14:27 42.35944 -71.02057 27 ft 20 kts 121°
2026-05-04 14:28 42.35868 -71.01879 27 ft 23 kts 115°
2026-05-04 14:28 42.35827 -71.01671 26 ft 24 kts 97°
2026-05-04 14:28 42.35936 -71.01525 27 ft 25 kts 20°
2026-05-04 14:28 42.36108 -71.01443 28 ft 26 kts 19°
2026-05-04 14:29 42.36453 -71.01275 22 ft 25 kts 20°
2026-05-04 14:29 42.36761 -71.01139 26 ft 22 kts 355°
2026-05-04 14:30 42.36898 -71.01197 22 ft 22 kts 28°
2026-05-04 14:30 42.37022 -71.01084 22 ft 22 kts 26°
2026-05-04 14:30 42.37304 -71.00905 19 ft 22 kts 24°
2026-05-04 14:31 42.37447 -71.00834 21 ft 22 kts 20°
2026-05-04 14:31 42.37721 -71.00701 27 ft 20 kts 19°
2026-05-04 14:32 42.37812 -71.00484 27 ft 7 kts 125°
2026-05-04 14:32 42.37770 -71.00482 24 ft 5 kts 206°
2026-05-04 14:32 42.37765 -71.00485 24 ft 0 kts 204°
2026-05-04 14:34 42.37681 -71.00528 26 ft 46 kts 199°
2026-05-04 14:34 42.37111 -71.00799 19 ft 125 kts 200°
2026-05-04 14:34 42.36483 -71.01096 92 ft 161 kts 202°
2026-05-04 14:34 42.35311 -71.01659 564 ft 194 kts 201°
2026-05-04 14:35 42.33937 -71.02088 1196 ft 214 kts 181°
2026-05-04 14:35 42.32492 -71.01362 1907 ft 240 kts 150°
2026-05-04 14:35 42.31377 -70.99589 2556 ft 259 kts 120°
2026-05-04 14:35 42.31010 -70.97177 3273 ft 268 kts 88°
2026-05-04 14:36 42.31339 -70.94680 3898 ft 277 kts 78°
2026-05-04 14:36 42.31732 -70.92123 4570 ft 280 kts 79°
2026-05-04 14:36 42.32117 -70.89482 5146 ft 291 kts 79°
2026-05-04 14:36 42.32515 -70.86770 5885 ft 297 kts 79°
2026-05-04 14:37 42.32924 -70.84018 6684 ft 300 kts 79°
2026-05-04 14:37 42.33338 -70.81239 7464 ft 303 kts 79°
2026-05-04 14:37 42.33789 -70.78445 8242 ft 306 kts 71°
2026-05-04 14:37 42.34843 -70.75980 8976 ft 303 kts 41°
2026-05-04 14:38 42.36535 -70.74380 9766 ft 294 kts 15°
2026-05-04 14:38 42.38457 -70.73512 10498 ft 292 kts
2026-05-04 14:38 42.40411 -70.72729 11228 ft 294 kts
2026-05-04 14:38 42.42433 -70.71916 11537 ft 314 kts 10°
2026-05-04 14:39 42.44601 -70.71033 11730 ft 337 kts 11°
2026-05-04 14:39 42.46929 -70.70215 11922 ft 355 kts
2026-05-04 14:39 42.49381 -70.69491 12399 ft 364 kts
2026-05-04 14:40 42.54382 -70.68053 13873 ft 369 kts
2026-05-04 14:40 42.56900 -70.67312 14511 ft 372 kts
2026-05-04 14:40 42.59443 -70.66553 15126 ft 376 kts
2026-05-04 14:40 42.62013 -70.65780 15754 ft 379 kts
2026-05-04 14:41 42.64604 -70.64999 16373 ft 383 kts
2026-05-04 14:41 42.67215 -70.64211 16988 ft 386 kts
2026-05-04 14:41 42.72488 -70.62968 18218 ft 390 kts
2026-05-04 14:42 42.77897 -70.61860 19259 ft 396 kts
2026-05-04 14:42 42.80632 -70.61314 19769 ft 397 kts 360°
2026-05-04 14:42 42.83383 -70.61120 20263 ft 396 kts 355°
2026-05-04 14:43 42.86146 -70.61140 20773 ft 398 kts 353°
2026-05-04 14:43 42.88923 -70.61222 21255 ft 401 kts 353°
2026-05-04 14:43 42.91722 -70.61301 21739 ft 404 kts 353°
2026-05-04 14:43 42.94546 -70.61357 22207 ft 407 kts 353°
2026-05-04 14:44 42.97392 -70.61390 22672 ft 411 kts 354°
2026-05-04 14:44 43.00259 -70.61405 23134 ft 414 kts 354°
2026-05-04 14:44 43.03147 -70.61410 23561 ft 417 kts 354°
2026-05-04 14:44 43.06046 -70.61410 23947 ft 419 kts 354°
2026-05-04 14:45 43.08973 -70.61407 24352 ft 420 kts 354°
2026-05-04 14:45 43.11905 -70.61405 24744 ft 422 kts 354°
2026-05-04 14:45 43.14846 -70.61404 25104 ft 425 kts 354°
2026-05-04 14:45 43.17812 -70.61403 25460 ft 427 kts 354°
2026-05-04 14:46 43.20791 -70.61403 25817 ft 429 kts 354°
2026-05-04 14:46 43.23786 -70.61403 26182 ft 431 kts 354°
2026-05-04 14:46 43.26794 -70.61402 26533 ft 433 kts 354°
2026-05-04 14:46 43.29817 -70.61402 26864 ft 435 kts 354°
2026-05-04 14:47 43.32850 -70.61402 27190 ft 437 kts 354°
2026-05-04 14:47 43.35902 -70.61398 27513 ft 440 kts 355°
2026-05-04 14:47 43.38963 -70.60768 27770 ft 457 kts 13°
2026-05-04 14:47 43.41840 -70.58766 28083 ft 473 kts 31°
2026-05-04 14:48 43.44225 -70.55579 28396 ft 486 kts 50°
2026-05-04 14:48 43.45869 -70.51467 28660 ft 495 kts 64°
2026-05-04 14:48 43.47188 -70.47075 28972 ft 497 kts 65°
2026-05-04 14:48 43.48456 -70.42642 29274 ft 499 kts 66°
2026-05-04 14:49 43.49722 -70.38193 29649 ft 499 kts 66°
2026-05-04 14:49 43.51003 -70.33753 30036 ft 498 kts 65°
2026-05-04 14:49 43.52299 -70.29339 30333 ft 497 kts 65°
2026-05-04 14:49 43.53611 -70.24931 30604 ft 498 kts 65°
2026-05-04 14:50 43.54933 -70.20517 30878 ft 498 kts 65°
2026-05-04 14:50 43.56256 -70.16111 31191 ft 497 kts 65°
2026-05-04 14:50 43.57577 -70.11705 31491 ft 497 kts 65°
2026-05-04 14:50 43.58893 -70.07301 31775 ft 497 kts 65°
2026-05-04 14:51 43.60208 -70.02890 32050 ft 497 kts 65°
2026-05-04 14:51 43.61520 -69.98479 32331 ft 497 kts 65°
2026-05-04 14:51 43.62828 -69.94072 32620 ft 496 kts 65°
2026-05-04 14:51 43.64133 -69.89663 32887 ft 497 kts 65°
2026-05-04 14:52 43.65438 -69.85249 33161 ft 496 kts 65°
2026-05-04 14:52 43.66741 -69.80834 33440 ft 496 kts 66°
2026-05-04 14:52 43.68039 -69.76428 33704 ft 496 kts 66°
2026-05-04 14:52 43.69320 -69.72071 33938 ft 496 kts 66°
2026-05-04 14:53 43.70615 -69.67663 34150 ft 495 kts 66°
2026-05-04 14:53 43.71909 -69.63250 34352 ft 495 kts 66°
2026-05-04 14:53 43.73199 -69.58833 34546 ft 495 kts 66°
2026-05-04 14:53 43.74460 -69.54396 34731 ft 496 kts 67°
2026-05-04 14:54 43.75700 -69.49942 34859 ft 497 kts 68°
2026-05-04 14:54 43.76936 -69.45458 34850 ft 501 kts 68°
2026-05-04 14:54 43.79427 -69.36396 34866 ft 506 kts 68°
2026-05-04 14:55 43.81938 -69.27272 34861 ft 509 kts 68°
2026-05-04 14:55 43.84462 -69.18096 34850 ft 510 kts 68°
2026-05-04 14:56 43.86980 -69.08911 34842 ft 509 kts 68°
2026-05-04 14:56 43.89482 -68.99747 34841 ft 508 kts 68°
2026-05-04 14:57 43.91972 -68.90594 34840 ft 506 kts 68°
2026-05-04 14:57 43.94440 -68.81485 34838 ft 504 kts 68°
2026-05-04 14:58 43.96894 -68.72395 34844 ft 502 kts 68°
2026-05-04 14:58 43.99334 -68.63324 34841 ft 501 kts 69°
2026-05-04 14:59 44.01761 -68.54265 34844 ft 500 kts 69°
2026-05-04 15:00 44.05389 -68.40661 34843 ft 501 kts 69°
2026-05-04 15:00 44.07801 -68.31574 34844 ft 502 kts 69°
2026-05-04 15:01 44.11399 -68.17951 34841 ft 503 kts 69°
2026-05-04 15:01 44.13808 -68.08788 34847 ft 504 kts 69°
2026-05-04 15:02 44.16212 -67.99608 34841 ft 505 kts 69°
2026-05-04 15:02 44.18615 -67.90396 34841 ft 506 kts 69°
2026-05-04 15:03 44.21011 -67.81175 34844 ft 507 kts 69°
2026-05-04 15:03 44.23404 -67.71928 34840 ft 507 kts 69°
2026-05-04 15:04 44.25789 -67.62680 34846 ft 507 kts 69°
2026-05-04 15:04 44.28166 -67.53421 34847 ft 507 kts 70°
2026-05-04 15:05 44.30537 -67.44151 34838 ft 507 kts 70°
2026-05-04 15:05 44.32900 -67.34875 34839 ft 507 kts 70°
2026-05-04 15:06 44.35254 -67.25598 34837 ft 507 kts 70°
2026-05-04 15:07 44.38769 -67.11677 34840 ft 506 kts 70°
2026-05-04 15:07 44.41105 -67.02389 34837 ft 506 kts 69°
2026-05-04 15:08 44.44130 -66.93553 34844 ft 503 kts 59°
2026-05-04 15:08 44.47631 -66.85063 34827 ft 503 kts 58°
2026-05-04 15:09 44.51137 -66.76576 34831 ft 504 kts 58°
2026-05-04 15:09 44.54599 -66.68037 34826 ft 504 kts 59°
2026-05-04 15:10 44.59744 -66.55176 34825 ft 504 kts 59°
2026-05-04 15:11 44.64850 -66.42340 34817 ft 504 kts 59°
2026-05-04 15:11 44.68265 -66.33731 34818 ft 505 kts 59°
2026-05-04 15:12 44.71675 -66.25110 34821 ft 505 kts 59°
2026-05-04 15:12 44.75081 -66.16473 34812 ft 505 kts 59°
2026-05-04 15:13 44.78482 -66.07821 34817 ft 505 kts 59°
2026-05-04 15:13 44.81876 -65.99158 34818 ft 505 kts 59°
2026-05-04 15:14 44.85264 -65.90485 34818 ft 505 kts 60°
2026-05-04 15:14 44.88651 -65.81788 34813 ft 505 kts 60°
2026-05-04 15:15 44.92027 -65.73092 34806 ft 505 kts 60°
2026-05-04 15:15 44.95393 -65.64393 34802 ft 505 kts 60°
2026-05-04 15:16 45.00426 -65.51337 34792 ft 504 kts 60°
2026-05-04 15:17 45.05433 -65.38287 34783 ft 503 kts 60°
2026-05-04 15:17 45.10415 -65.25238 34772 ft 502 kts 60°
2026-05-04 15:18 45.13700 -65.16603 34768 ft 501 kts 60°
2026-05-04 15:19 45.18641 -65.03561 34766 ft 500 kts 60°
2026-05-04 15:19 45.23563 -64.90508 34761 ft 500 kts 60°
2026-05-04 15:20 45.26836 -64.81794 34753 ft 500 kts 60°
2026-05-04 15:20 45.30103 -64.73069 34745 ft 501 kts 61°
2026-05-04 15:21 45.33362 -64.64335 34737 ft 501 kts 61°
2026-05-04 15:22 45.38245 -64.51198 34722 ft 501 kts 61°
2026-05-04 15:22 45.42572 -64.39506 34714 ft 501 kts 61°
2026-05-04 15:23 45.45812 -64.30717 34701 ft 501 kts 61°
2026-05-04 15:23 45.49046 -64.21914 34689 ft 501 kts 61°
2026-05-04 15:24 45.55492 -64.04285 34677 ft 501 kts 61°
2026-05-04 15:25 45.58684 -63.95513 34669 ft 501 kts 61°
2026-05-04 15:26 45.63492 -63.82246 34659 ft 501 kts 61°
2026-05-04 15:26 45.68284 -63.68959 34645 ft 501 kts 62°
2026-05-04 15:27 45.73053 -63.55669 34635 ft 500 kts 62°
2026-05-04 15:28 45.77802 -63.42370 34624 ft 500 kts 62°
2026-05-04 15:29 45.82528 -63.29067 34617 ft 499 kts 62°
2026-05-04 15:30 45.93483 -62.97980 34621 ft 498 kts 62°
2026-05-04 15:31 45.98150 -62.84625 34608 ft 499 kts 62°
2026-05-04 15:32 46.05906 -62.62279 34585 ft 500 kts 62°
2026-05-04 15:34 46.13628 -62.39844 34571 ft 502 kts 63°
2026-05-04 15:34 46.18263 -62.26287 34565 ft 502 kts 63°
2026-05-04 15:35 46.22884 -62.12699 34552 ft 503 kts 63°
2026-05-04 15:36 46.27489 -61.99090 34545 ft 502 kts 63°
2026-05-04 15:36 46.30545 -61.90018 34540 ft 502 kts 63°
2026-05-04 15:37 46.33590 -61.80948 34529 ft 501 kts 63°
2026-05-04 15:37 46.36626 -61.71872 34524 ft 501 kts 63°
2026-05-04 15:38 46.39652 -61.62796 34516 ft 500 kts 63°
2026-05-04 15:38 46.42669 -61.53715 34510 ft 500 kts 63°
2026-05-04 15:39 46.45682 -61.44614 34503 ft 501 kts 64°
2026-05-04 15:40 46.50193 -61.30927 34491 ft 502 kts 64°
2026-05-04 15:40 46.53179 -61.21828 34494 ft 503 kts 64°
2026-05-04 15:41 46.56189 -61.12625 34471 ft 505 kts 64°
2026-05-04 15:41 46.59203 -61.03376 34469 ft 507 kts 64°
2026-05-04 15:42 46.62218 -60.94090 34457 ft 508 kts 64°
2026-05-04 15:42 46.65230 -60.84781 34434 ft 509 kts 64°
2026-05-04 15:43 46.68235 -60.75454 34419 ft 509 kts 64°
2026-05-04 15:43 46.71239 -60.66102 34405 ft 510 kts 64°
2026-05-04 15:44 46.74241 -60.56722 34379 ft 510 kts 64°
2026-05-04 15:44 46.77234 -60.47334 34378 ft 510 kts 64°
2026-05-04 15:45 46.80217 -60.37941 34370 ft 510 kts 64°
2026-05-04 15:45 46.83191 -60.28546 34375 ft 509 kts 65°
2026-05-04 15:46 46.86152 -60.19153 34373 ft 508 kts 65°
2026-05-04 15:46 46.89101 -60.09769 34376 ft 507 kts 65°
2026-05-04 15:47 46.92035 -60.00393 34378 ft 507 kts 65°
2026-05-04 15:47 46.94939 -59.91080 34382 ft 505 kts 65°
2026-05-04 15:48 46.97848 -59.81718 34379 ft 504 kts 66°
2026-05-04 15:48 47.02188 -59.67683 34367 ft 504 kts 66°
2026-05-04 15:49 47.05068 -59.58327 34360 ft 503 kts 66°
2026-05-04 15:49 47.07937 -59.48971 34351 ft 503 kts 66°
2026-05-04 15:50 47.10795 -59.39612 34349 ft 502 kts 67°
2026-05-04 15:50 47.13645 -59.30252 34339 ft 502 kts 67°
2026-05-04 15:51 47.16835 -59.21140 34335 ft 502 kts 60°
2026-05-04 15:51 47.20474 -59.12366 34317 ft 503 kts 59°
2026-05-04 15:52 47.24137 -59.03605 34311 ft 503 kts 59°
2026-05-04 15:52 47.27723 -58.94838 34308 ft 504 kts 60°
2026-05-04 15:53 47.31307 -58.85952 34299 ft 505 kts 60°
2026-05-04 15:53 47.34885 -58.77036 34290 ft 506 kts 60°
2026-05-04 15:54 47.38470 -58.68082 34271 ft 507 kts 60°
2026-05-04 15:54 47.42056 -58.59102 34270 ft 508 kts 60°
2026-05-04 15:55 47.45636 -58.50108 34261 ft 508 kts 60°
2026-05-04 15:55 47.49210 -58.41099 34248 ft 508 kts 60°
2026-05-04 15:56 47.52780 -58.32072 34243 ft 508 kts 60°
2026-05-04 15:56 47.56340 -58.23036 34232 ft 508 kts 61°
2026-05-04 15:57 47.59885 -58.14010 34221 ft 507 kts 61°
2026-05-04 15:57 47.63423 -58.04971 34224 ft 506 kts 61°
2026-05-04 15:58 47.66927 -57.95990 34204 ft 506 kts 61°
2026-05-04 15:58 47.70439 -57.86958 34199 ft 505 kts 61°
2026-05-04 15:59 47.73937 -57.77929 34201 ft 504 kts 62°
2026-05-04 15:59 47.77423 -57.68905 34191 ft 503 kts 62°
2026-05-04 16:00 47.78810 -57.65303 34190 ft 503 kts 62°
2026-05-04 16:05 47.81427 -57.58498 34176 ft 498 kts 62°
2026-05-04 16:06 47.86510 -57.45231 34174 ft 489 kts 62°
2026-05-04 16:06 47.91172 -57.33461 32893 ft 495 kts 57°
2026-05-04 16:07 47.93788 -57.27889 31973 ft 496 kts 55°
2026-05-04 16:07 47.99898 -57.15349 29851 ft 500 kts 54°
2026-05-04 16:08 48.01931 -57.11127 29078 ft 502 kts 55°
2026-05-04 16:08 48.07932 -56.98489 27169 ft 488 kts 55°
2026-05-04 16:09 48.11798 -56.90279 26062 ft 478 kts 56°
2026-05-04 16:09 48.15585 -56.82216 24979 ft 468 kts 56°
2026-05-04 16:10 48.19293 -56.74303 23944 ft 460 kts 56°
2026-05-04 16:11 48.24730 -56.62658 22323 ft 449 kts 56°
2026-05-04 16:11 48.26511 -56.58832 21754 ft 445 kts 56°
2026-05-04 16:12 48.31152 -56.48841 20406 ft 432 kts 57°
2026-05-04 16:12 48.36222 -56.37882 18953 ft 420 kts 57°
2026-05-04 16:13 48.39521 -56.30728 18022 ft 413 kts 57°
2026-05-04 16:13 48.42763 -56.23677 17041 ft 407 kts 58°
2026-05-04 16:14 48.45955 -56.16717 16082 ft 400 kts 58°
2026-05-04 16:14 48.49083 -56.09881 15186 ft 392 kts 58°
2026-05-04 16:15 48.53650 -55.99867 13830 ft 383 kts 58°
2026-05-04 16:16 48.56644 -55.93283 12984 ft 378 kts 58°
2026-05-04 16:16 48.61040 -55.83586 11659 ft 368 kts 59°
2026-05-04 16:17 48.63897 -55.77265 10946 ft 358 kts 59°
2026-05-04 16:18 48.67824 -55.68575 10666 ft 311 kts 60°
2026-05-04 16:18 48.69023 -55.65909 10637 ft 303 kts 60°
2026-05-04 16:19 48.72569 -55.57993 9892 ft 300 kts 60°
2026-05-04 16:19 48.74909 -55.52759 9396 ft 300 kts 60°
2026-05-04 16:20 48.78390 -55.44966 8650 ft 291 kts 61°
2026-05-04 16:20 48.80596 -55.40028 8091 ft 273 kts 61°
2026-05-04 16:21 48.83644 -55.33180 7187 ft 253 kts 62°
2026-05-04 16:22 48.85594 -55.28774 6649 ft 251 kts 62°
2026-05-04 16:22 48.88501 -55.22200 5816 ft 251 kts 62°
2026-05-04 16:23 48.91417 -55.15597 4942 ft 249 kts 62°
2026-05-04 16:24 48.95131 -55.07180 4043 ft 218 kts 63°
2026-05-04 16:25 48.96760 -55.03471 4081 ft 209 kts 64°
2026-05-04 16:26 48.99952 -54.96184 4078 ft 205 kts 63°
2026-05-04 16:26 49.01446 -54.90596 4124 ft 185 kts 108°
2026-05-04 16:27 49.01014 -54.86687 4069 ft 187 kts 109°
2026-05-04 16:28 48.99995 -54.81096 3341 ft 180 kts 115°
2026-05-04 16:28 48.98856 -54.75650 2576 ft 178 kts 114°
2026-05-04 16:29 48.97496 -54.69138 1676 ft 150 kts 115°
2026-05-04 16:30 48.96583 -54.64758 1098 ft 145 kts 115°
2026-05-04 16:31 48.96002 -54.61882 885 ft 139 kts 116°
2026-05-04 16:31 48.95157 -54.57807 468 ft 125 kts 111°
2026-05-04 16:32 48.94799 -54.56128 456 ft 29 kts 115°
2026-05-04 16:33 48.94547 -54.56171 459 ft 21 kts 245°
2026-05-04 16:33 48.94418 -54.56553 458 ft 20 kts 242°
2026-05-04 16:34 48.94430 -54.56880 460 ft 18 kts 328°
2026-05-04 16:34 48.94538 -54.56979 462 ft 18 kts 333°
2026-05-04 16:35 48.94759 -54.57287 467 ft 15 kts 288°